EHI
1 0 0 0 0 0 0 0 0 0 0 0 0 0 0 0 0 0 0 0 0 0 0 0 0 0 0 0 0 0 0 0 0 0 0 0 0 0
2 1 0 0 0 0 0 0 0 0 0 0 0 0 0 0 0 0 0 0 0 0 0 0 0 0 0 0 0 0 0 0 0 0 0 0 0 0
3 2 1 0 0 0 0 0 0 0 0 0 0 0 0 0 0 0 0 0 0 0 0 0 0 0 0 0 0 0 0 0 0 0 0 0 0 0
4 3 2 1 0 0 0 0 0 0 0 0 0 0 0 0 0 0 0 0 0 0 0 0 0 0 0 0 0 0 0 0 0 0 0 0 0 0
4 3 2 1 0 0 0 0 0 0 0 0 0 0 0 0 0 0 0 0 0 0 0 0 0 0 0 0 0 0 0 0 0 0 0 0 0 0
3 2 1 0 0 0 0 0 0 0 0 0 0 0 0 0 0 0 0 0 0 0 0 0 0 0 0 0 0 0 0 0 0 0 0 0 0 0
2 1 0 0 0 0 0 0 0 0 0 0 0 0 0 0 0 0 0 0 0 0 0 0 0 0 0 0 0 0 0 0 0 0 0 0 0 0
2 1 0 0 0 0 0 0 0 0 0 0 0 0 0 0 0 0 0 0 0 0 0 0 0 0 0 0 0 0 0 0 0 0 0 0 0 0
3 2 1 0 0 0 0 0 0 0 0 0 0 0 0 0 0 0 0 0 0 0 0 0 0 0 0 0 0 0 0 0 0 0 0 0 0 0
3 2 1 0 0 0 0 0 0 0 0 0 0 0 0 0 0 0 0 0 0 0 0 0 0 0 0 0 0 0 0 0 0 0 0 0 0 0
1 1 0 0 0 0 0 0 0 0 0 0 0 0 0 0 0 0 0 0 0 0 0 0 0 0 0 0 0 0 0 0 0 0 0 0 0 0
0 0 0 0 0 0 0 0 0 0 0 0 0 0 0 0 0 0 0 0 0 0 0 0 0 0 0 0 0 0 0 0 0 0 0 0 0 0
0 0 0 0 0 0 0 0 0 0 0 0 0 0 0 0 0 0 0 0 0 0 0 0 0 0 0 0 0 0 0 0 0 0 0 0 0 0
0 0 0 0 0 0 0 0 0 0 0 0 0 0 0 0 0 0 0 0 0 0 0 0 0 0 0 0 0 0 0 0 0 0 0 0 0 0
0 0 0 0 0 0 0 0 0 0 0 0 0 0 0 0 0 0 0 0 0 0 0 0 0 0 0 0 0 0 0 0 0 0 0 0 0 0
0 0 0 0 0 0 0 0 0 0 0 0 0 0 0 0 0 0 0 0 0 0 0 0 0 0 0 0 0 0 0 0 0 0 0 0 0 0
0 0 0 0 0 0 0 0 0 0 0 0 0 0 0 0 0 0 0 0 0 0 0 0 0 0 0 0 0 0 0 0 0 0 0 0 0 0
0 0 0 0 0 0 0 0 0 0 0 0 0 0 0 0 0 0 0 0 0 0 0 0 0 0 0 0 0 0 0 0 0 0 0 0 0 0
0 0 0 0 0 0 0 0 0 0 0 0 0 0 0 0 0 0 0 0 0 0 0 0 0 0 0 0 0 0 0 0 0 0 0 0 0 0
0 0 0 0 0 0 0 0 0 0 0 0 0 0 0 0 0 0 0 0 0 0 0 0 0 0 0 0 0 0 0 0 0 0 0 0 0 0
0 0 0 0 0 0 0 0 0 0 0 0 0 0 0 0 0 0 0 0 0 0 0 0 0 0 0 0 0 0 0 0 0 0 0 0 0 0
0 0 0 0 0 0 0 0 0 0 0 0 0 0 0 0 0 0 0 0 0 0 0 0 0 0 0 0 0 0 0 0 0 0 0 0 0 0
0 0 0 0 0 0 0 0 0 0 0 0 0 0 0 0 0 0 0 0 0 0 0 0 0 0 0 0 0 0 0 0 0 0 0 0 0 0
Wind_Speed
4 3 3 3 3 3 3 3 3 3 3 3 2 2 2 2 3 3 4 6 8 9 10 10 11 10 10 10 10 10 10 10 10 10 10 10 10 11
2 2 2 2 2 2 2 2 2 3 3 2 2 2 1 2 2 2 3 4 6 7 8 9 9 9 9 9 10 9 9 9 9 9 9 9 9 9
1 1 2 2 2 2 1 1 1 2 3 3 1 1 1 1 1 1 1 2 2 5 6 6 7 8 8 8 8 8 9 9 9 9 9 9 9 9
1 1 2 2 2 2 1 1 1 1 2 3 1 1 1 1 2 1 1 1 1 3 4 5 6 6 6 6 7 7 7 8 8 8 9 9 9 9
0 1 2 2 2 2 2 2 1 1 0 1 1 1 1 2 2 2 2 1 1 1 1 2 3 4 4 4 5 5 5 6 6 7 8 8 8 9
1 1 2 2 1 2 2 2 2 2 2 1 1 2 2 2 2 2 2 2 2 2 2 1 0 2 2 3 3 3 3 3 4 5 6 7 7 7
3 3 3 4 5 3 2 2 2 2 2 1 1 2 2 2 2 2 2 2 2 2 2 2 2 1 1 2 1 2 2 3 3 4 4 4 5 6
3 3 3 5 6 7 7 7 5 3 2 2 1 2 2 2 2 2 2 2 2 3 2 2 2 2 2 1 2 2 1 2 2 2 3 3 4 4
3 3 3 4 5 4 6 8 8 8 6 2 2 1 2 2 2 2 2 1 1 2 2 2 2 2 2 3 4 3 3 3 2 2 1 2 2 3
4 4 4 4 5 5 5 6 5 5 5 3 2 2 2 2 1 1 1 1 1 2 2 1 2 2 2 2 4 5 4 4 3 2 2 2 2 2
5 5 5 5 8 7 6 5 5 5 6 8 7 6 6 7 4 2 3 2 2 3 2 2 2 3 2 2 3 4 4 4 4 3 3 3 3 2
5 6 9 8 8 8 5 4 5 4 4 6 6 7 6 6 7 3 2 2 1 2 3 2 2 3 3 2 2 3 3 4 4 4 4 4 3 1
4 4 5 10 10 10 7 5 5 4 4 4 4 5 5 5 5 5 3 2 2 1 2 2 2 2 1 2 2 2 2 2 2 3 5 6 4 2
4 3 5 10 11 11 8 9 9 7 4 5 5 5 5 5 4 4 4 3 1 1 2 1 1 1 1 2 2 3 2 2 2 3 3 5 4 4
5 8 10 11 10 9 11 11 8 5 5 5 4 4 3 4 4 4 5 5 5 4 4 2 1 1 1 1 2 2 2 2 2 2 2 2 2 2
6 8 11 11 9 9 8 7 5 5 4 3 3 3 4 4 4 4 3 3 3 4 5 4 3 2 1 1 1 2 2 2 2 2 2 2 2 2
5 5 6 5 6 6 5 5 5 5 5 4 4 4 4 4 4 3 3 3 3 3 5 5 4 2 1 0 1 2 2 2 2 2 1 2 3 2
8 6 5 4 4 4 4 4 4 4 4 4 4 3 3 3 4 3 3 3 2 3 3 4 4 4 4 3 1 1 2 2 2 2 1 1 3 3
7 5 4 4 3 3 3 3 3 3 3 3 3 3 3 3 3 3 3 3 3 3 3 3 2 2 3 4 5 2 1 2 2 2 2 1 2 3
4 4 3 3 3 3 3 3 3 3 3 3 3 3 3 3 3 3 3 3 3 3 3 3 3 2 1 2 3 5 4 2 2 2 2 2 2 3
3 3 3 3 3 3 3 3 3 3 3 3 3 3 3 3 3 3 3 4 3 2 3 4 5 5 2 1 3 4 4 5 3 2 2 2 3 3
3 3 2 2 2 2 2 3 3 4 4 4 4 4 3 3 3 3 3 3 3 2 3 4 5 4 2 2 3 4 4 5 5 5 3 1 1 2
2 2 2 2 2 2 2 3 4 4 4 3 4 4 4 3 3 3 3 3 3 3 3 4 4 3 2 2 3 3 4 4 4 4 4 7 6 4
Wind_Direction
244 244 247 258 248 240 227 204 204 251 274 265 271 269 250 239 227 213 221 227 228 227 227 229 230 231 231 231 230 231 234 237 238 237 236 236 236 237
245 250 259 267 274 269 249 227 200 208 248 259 248 268 277 266 234 220 223 225 231 234 234 231 231 230 229 230 230 230 231 234 237 236 234 235 235 236
268 261 280 290 297 299 290 267 234 205 245 271 261 298 311 308 328 274 247 234 232 228 231 229 231 233 234 234 235 234 233 234 235 235 235 234 234 235
297 330 315 314 319 315 307 302 279 234 224 265 294 316 310 331 317 312 303 288 251 240 229 230 233 234 234 236 236 235 235 235 235 236 236 235 235 236
304 325 325 352 343 336 342 337 322 326 258 217 294 318 315 344 333 332 326 303 278 276 241 233 239 237 230 227 226 228 232 234 237 240 241 242 242 243
54 38 37 43 1 342 8 360 10 22 32 43 345 344 340 333 346 334 329 322 316 336 349 357 319 251 252 238 225 226 228 234 240 245 246 248 249 249
56 51 56 64 55 47 46 32 40 43 38 36 10 7 359 356 345 334 325 324 334 358 351 356 10 9 337 310 279 246 234 239 247 253 256 257 256 254
62 44 50 45 47 53 53 55 61 68 57 47 28 19 346 334 332 344 343 360 340 344 359 348 10 1 348 1 1 0 331 303 278 264 267 275 277 270
63 52 48 43 45 47 49 51 50 52 62 89 67 17 342 325 341 2 4 18 343 329 354 340 352 345 342 15 18 8 342 333 331 316 323 319 306 292
59 58 61 47 49 54 59 53 44 36 36 46 53 8 6 342 339 338 293 334 2 10 22 355 332 318 332 355 10 17 13 8 4 346 327 322 314 303
49 52 60 58 45 50 61 58 45 28 36 42 38 28 23 22 27 40 34 43 12 348 360 18 330 322 326 341 359 12 13 10 5 356 341 334 324 312
51 46 49 53 49 48 59 60 48 20 24 30 27 18 15 15 26 47 71 65 29 345 336 4 347 357 343 336 356 358 3 359 359 355 347 344 343 353
63 46 38 48 52 50 53 55 52 49 43 42 35 24 19 19 18 20 33 77 70 329 316 4 354 355 341 312 327 340 348 350 355 346 340 342 347 354
70 51 46 53 56 54 55 51 51 55 51 44 37 25 15 7 1 5 16 29 40 315 316 3 2 325 343 331 316 324 336 346 354 346 342 342 341 341
69 64 59 56 55 53 48 47 48 49 48 45 33 15 359 356 4 9 9 12 10 10 14 13 15 340 24 319 303 311 315 321 337 337 336 338 336 339
64 59 58 56 54 47 41 38 37 40 48 42 21 8 10 14 13 8 9 3 10 351 348 1 13 28 15 343 318 309 308 306 315 319 325 331 337 335
77 62 55 49 47 41 36 33 31 31 33 25 24 21 16 13 1 355 4 8 13 349 342 344 353 359 336 267 329 310 306 303 297 307 330 333 325 322
80 69 60 54 51 43 38 32 30 27 18 18 19 16 12 6 357 356 5 13 1 344 336 330 344 355 357 342 288 275 310 298 301 313 322 318 313 315
76 69 61 54 46 41 37 33 21 6 7 13 10 2 360 1 2 358 357 356 346 335 326 327 350 12 0 333 314 318 288 299 312 317 305 282 284 297
70 72 63 53 49 43 32 21 10 5 4 1 359 358 357 356 356 349 342 341 334 334 335 334 336 330 289 278 288 306 318 292 296 304 302 305 297 304
64 61 58 54 46 36 26 18 9 359 354 352 354 349 346 348 343 336 334 341 345 339 335 321 305 315 305 354 340 323 316 323 305 272 283 312 320 323
72 67 53 48 45 35 25 18 10 360 355 355 347 341 336 337 333 332 332 330 324 318 313 312 325 344 7 1 322 306 310 322 333 339 333 279 246 267
74 66 53 41 36 33 26 22 18 359 350 346 341 335 330 327 320 319 320 321 323 326 327 327 336 344 334 320 308 302 312 320 329 338 333 334 322 298